Regional Weather Roundup
Issued by NWS

Home | Current Version | Previous Version | Graphics & Text | Print | Product List | Glossary On
Versions: 1 2 3 4 5 6 7 8 9 10 11 12 13 14 15 16 17 18 19 20 21 22 23 24 25 26 27 28 29 30 31 32 33 34 35 36 37 38 39 40 41 42 43 44 45 46 47 48 49 50
000
ASUS43 KBIS 240910
RWRND

NORTH DAKOTA REGIONAL WEATHER ROUNDUP
NATIONAL WEATHER SERVICE BISMARCK ND
300 AM CST TUE JAN 24 2017

NOTE: "FAIR" INDICATES FEW OR NO CLOUDS BELOW 12,000 FEET WITH NO
SIGNIFICANT WEATHER AND/OR OBSTRUCTIONS TO VISIBILITY.


NDZ001>003-009>011-017-241000-
NORTHWEST NORTH DAKOTA

CITY           SKY/WX    TMP DP  RH WIND       PRES   REMARKS
WILLISTON      CLOUDY    22  18  85 NW7       29.86R WCI  13
MINOT          CLOUDY    24  19  81 W9        29.82R WCI  14
MINOT AFB      CLOUDY    23  19  85 W15       29.81R WCI  10
$$

NDZ018>021-031>035-040>046-241000-
SOUTHWEST NORTH DAKOTA

CITY           SKY/WX    TMP DP  RH WIND       PRES   REMARKS
BISMARCK       CLOUDY    25  20  81 N10       29.85R WCI  15
DICKINSON      CLOUDY    20  17  88 N3        29.80R
GARRISON         N/A     20  17  88 NW6       29.83R WCI  12
HETTINGER ARPT CLOUDY    21  20  96 NW6       29.81R FOG     WCI  13
$$

NDZ004>008-012>016-024-026-027-054-241000-
NORTHEAST NORTH DAKOTA

CITY           SKY/WX    TMP DP  RH WIND       PRES   REMARKS
GRAND FORKS    CLOUDY    26  19  74 W9        29.85S WCI  17
GRND FRKS AFB  CLOUDY    25  19  78 W9        29.85S WCI  15
DEVILS LAKE    CLOUDY    22  19  89 W14       29.82R WCI   9
$$

NDZ022-023-025-028>030-036>039-047>053-241000-
SOUTHEAST NORTH DAKOTA

CITY           SKY/WX    TMP DP  RH WIND       PRES   REMARKS
FARGO          CLOUDY    32  26  78 SW5       29.86R
JAMESTOWN      CLOUDY    28  23  81 NW10      29.82S WCI  19
$$




USA.gov is the U.S. government's official web portal to all federal, state and local government web resources and services.